TimeCST,TemperatureF,Dew PointF,Humidity,Sea Level PressureIn,VisibilityMPH,Wind Direction,Wind SpeedMPH,Gust SpeedMPH,PrecipitationIn,Events,Conditions,WindDirDegrees,DateUTC
12:54 AM,28.0,19.0,69,30.27,10.0,Calm,Calm,-,N/A,,Clear,0,2013-01-26 06:54:00
1:54 AM,26.1,19.9,78,30.28,10.0,Calm,Calm,-,N/A,,Clear,0,2013-01-26 07:54:00
2:54 AM,28.0,19.0,69,30.28,10.0,Calm,Calm,-,N/A,,Clear,0,2013-01-26 08:54:00
3:54 AM,32.0,21.0,64,30.29,10.0,North,5.8,-,N/A,,Clear,10,2013-01-26 09:54:00
4:54 AM,28.0,19.9,72,30.31,10.0,NW,5.8,-,N/A,,Clear,320,2013-01-26 10:54:00
5:54 AM,28.0,19.0,69,30.35,10.0,North,5.8,-,N/A,,Clear,10,2013-01-26 11:54:00
6:54 AM,26.1,14.0,60,30.37,10.0,North,5.8,-,N/A,,Scattered Clouds,10,2013-01-26 12:54:00
7:54 AM,25.0,12.0,58,30.39,10.0,NE,5.8,-,N/A,,Mostly Cloudy,40,2013-01-26 13:54:00
8:54 AM,26.1,10.9,53,30.41,10.0,NE,6.9,-,N/A,,Scattered Clouds,40,2013-01-26 14:54:00
9:54 AM,28.0,9.0,45,30.43,10.0,ENE,5.8,-,N/A,,Scattered Clouds,60,2013-01-26 15:54:00
10:54 AM,30.0,10.0,43,30.43,10.0,Calm,Calm,-,N/A,,Scattered Clouds,0,2013-01-26 16:54:00
11:54 AM,32.0,9.0,38,30.42,10.0,Calm,Calm,-,N/A,,Partly Cloudy,0,2013-01-26 17:54:00
12:54 PM,36.0,10.9,36,30.38,10.0,Variable,4.6,-,N/A,,Clear,0,2013-01-26 18:54:00
1:54 PM,37.9,12.9,36,30.35,10.0,NNE,5.8,-,N/A,,Clear,20,2013-01-26 19:54:00
2:54 PM,39.9,12.9,33,30.33,10.0,NE,5.8,-,N/A,,Partly Cloudy,50,2013-01-26 20:54:00
3:54 PM,41.0,12.9,32,30.32,10.0,NNE,4.6,-,N/A,,Partly Cloudy,30,2013-01-26 21:54:00
4:54 PM,39.0,10.9,32,30.32,10.0,East,4.6,-,N/A,,Scattered Clouds,100,2013-01-26 22:54:00
5:54 PM,36.0,12.0,37,30.34,10.0,East,4.6,-,N/A,,Scattered Clouds,90,2013-01-26 23:54:00
6:54 PM,36.0,12.9,39,30.34,10.0,ESE,4.6,-,N/A,,Scattered Clouds,110,2013-01-27 00:54:00
7:54 PM,33.1,15.1,48,30.34,10.0,ESE,6.9,-,N/A,,Scattered Clouds,110,2013-01-27 01:54:00
8:54 PM,30.9,15.1,52,30.33,10.0,East,4.6,-,N/A,,Clear,100,2013-01-27 02:54:00
9:54 PM,30.0,15.1,54,30.34,10.0,ESE,4.6,-,N/A,,Clear,110,2013-01-27 03:54:00
10:54 PM,28.0,15.1,58,30.34,10.0,East,4.6,-,N/A,,Clear,100,2013-01-27 04:54:00
11:54 PM,28.9,16.0,58,30.32,10.0,East,4.6,-,N/A,,Clear,100,2013-01-27 05:54:00